Flag for U.S.A. Weather past 2 weeks in Modesto, California, U.S.A.

Now
43 °F

Clear.


Feels Like: 43 °F
Forecast: 40 / 67 °F
Wind: No wind

Location: Modesto City-County-Sham Field

Current Time: Mar 4, 2015 at 5:04:44 AM

Latest Report: Mar 4, 2015 at 3:53 AM


Visibility: 10 mi

Pressure: 30.03 "Hg

Humidity: 86%

Dew point: 39 °F

Location of ModestoLocation

Historic Weather in Modesto — Graph

°F

Modesto temperature yesterday

Maximum temperature yesterday: 65 °F (at 1:53 PM)
Minimum temperature yesterday: 41 °F (at 6:53 AM)
Average temperature yesterday: 53 °F

Past Weeks' High & Low Weather Summary

 TemperatureHumidityPressure
High72 °F (Feb 26, 3:53 PM)97% (Feb 19, 8:53 AM)30.35 "Hg (Feb 19, 8:53 AM)
Low37 °F (Feb 25, 6:58 AM)14% (Feb 24, 2:53 PM)29.71 "Hg (Feb 27, 5:53 PM)
Average53 °F72%30.00 "Hg
* Reported Feb 17 3:53 AM — Mar 4 3:53 AM, Modesto, Weather by CustomWeather, © 2015

Note: Actual official high and low records may vary slightly from our data, if they occured in-between our weather recording intervals... More about our weather records

Advertising

Modesto weather history for previous 24 hours

 ConditionsComfort  
Time TempWeatherWind HumidityBarometerVisibility
3:53 AM
Wed, Mar 4
43 °FClear.No wind86%30.03 "Hg10 mi
2:53 AM43 °FClear.No wind89%30.03 "Hg9 mi
1:53 AM45 °FClear.3 mph82%30.03 "Hg10 mi
12:53 AM49 °FClear.3 mph74%30.01 "Hg10 mi
11:53 PM
Tue, Mar 3
50 °FClear.7 mph74%30.00 "Hg10 mi
10:53 PM52 °FClear.N/A72%29.99 "Hg10 mi
9:53 PM52 °FClear.8 mph72%29.99 "Hg10 mi
8:53 PM54 °FClear.9 mph64%29.98 "Hg10 mi
7:53 PM56 °FClear.9 mph58%29.96 "Hg10 mi
6:53 PM58 °FClear.6 mph54%29.95 "Hg10 mi
5:53 PM61 °FSunny.12 mph48%29.94 "Hg10 mi
4:53 PM63 °FSunny.13 mph45%29.93 "Hg10 mi
3:53 PM64 °FSunny.14 mph45%29.94 "Hg10 mi
2:53 PM65 °FSunny.17 mph42%29.95 "Hg10 mi
1:53 PM65 °FSunny.13 mph47%29.97 "Hg10 mi
12:53 PM64 °FSunny.16 mph49%30.00 "Hg10 mi
11:53 AM61 °FSunny.14 mph54%30.02 "Hg10 mi
10:53 AM59 °FSunny.10 mph56%30.03 "Hg10 mi
9:53 AM55 °FSunny.9 mph64%30.05 "Hg10 mi
8:53 AM51 °FSunny.6 mph77%30.05 "Hg9 mi
7:53 AM46 °FSunny.5 mph86%30.03 "Hg8 mi
6:53 AM41 °FFog.No wind89%30.01 "Hg5 mi
5:53 AM42 °FClear.No wind85%30.00 "Hg8 mi
Weather by CustomWeather, © 2015

See weather overviewHow to use our weather pages